Date String (YYYY-MM-DD hh:mm:ss) UTC,Instrument flags,absolute air pressure of the measurement (hPa),sample flow rate (lpm),inlet stack bypass flow (lpm),air temperature of the measurement (°C),ambient temperature measured by the external sensor (°C),aerosol sample conditioner tube jacket temperature (°C),OPC LED temperature (°C),internal box temperature (°C),relative humidity of the measurement (%),span deviation,mass concentration of particles derived from Lorenz-Mie calculation of OPC scattering (μg/m³),mass concentration of particles derived from Lorenz-Mie calculation of OPC scattering (μg/m³),mass concentration of particles derived from Lorenz-Mie calculation of OPC scattering (μg/m³)
DateTimeUTC,F1_M11,P_M11,Q1_M11,Q2_M11,T1_M11,T2_M11,T3_M11,T4_M11,T5_M11,U1_M11,ZSPAN_M11,X2_M11,X0_M11,X1_M11
2024-02-15 04:00:00,SystemResetWarning,0828.6,5.00,000.00,021.6,021.0,000.0,030.2,023.5,18.4,0000.0,0004.56,0008.83,0004.10
2024-02-15 04:01:00,SystemResetWarning,0828.7,5.00,000.00,021.6,021.0,000.0,030.2,023.5,18.4,0000.0,0004.59,0009.46,0004.12
2024-02-15 04:02:00,SystemResetWarning,0828.6,5.00,000.00,021.6,021.0,000.0,030.2,023.5,18.4,0000.0,0004.62,0010.24,0004.14
2024-02-15 04:03:00,SystemResetWarning,0828.6,5.00,000.00,021.6,021.0,000.0,030.2,023.5,18.5,0000.0,0004.62,0010.47,0004.16
2024-02-15 04:04:00,SystemResetWarning,0828.6,5.00,000.00,021.6,021.0,000.0,030.2,023.4,18.5,0000.0,0004.64,0010.55,0004.17
2024-02-15 04:05:00,SystemResetWarning,0828.5,5.00,000.00,021.6,021.0,000.0,030.1,023.4,18.5,0000.0,0004.66,0010.86,0004.19
2024-02-15 04:06:00,SystemResetWarning,0828.6,5.00,000.00,021.6,020.9,000.0,030.1,023.4,18.5,0000.0,0004.69,0011.55,0004.21
2024-02-15 04:07:00,SystemResetWarning,0828.5,5.00,000.00,021.6,020.9,000.0,030.1,023.4,18.6,0000.0,0004.72,0011.60,0004.24
2024-02-15 04:08:00,SystemResetWarning,0828.6,5.00,000.00,021.5,020.9,000.0,030.1,023.4,18.6,0000.0,0004.73,0011.61,0004.25
2024-02-15 04:09:00,SystemResetWarning,0828.5,5.00,000.00,021.5,020.9,000.0,030.1,023.4,18.6,0000.0,0004.71,0010.93,0004.26
2024-02-15 04:10:00,SystemResetWarning,0828.6,5.00,000.00,021.5,020.9,000.0,030.1,023.3,18.6,0000.0,0004.73,0010.38,0004.29
2024-02-15 04:11:00,SystemResetWarning,0828.6,4.99,000.00,021.5,020.9,000.0,030.1,023.3,18.6,0000.0,0004.73,0010.62,0004.30
2024-02-15 04:12:00,SystemResetWarning,0828.7,5.00,000.00,021.5,020.9,000.0,030.1,023.3,18.7,0000.0,0004.75,0010.40,0004.32
2024-02-15 04:13:00,SystemResetWarning,0828.7,5.00,000.00,021.5,020.9,000.0,030.1,023.3,18.7,0000.0,0004.73,0009.74,0004.33
2024-02-15 04:14:00,SystemResetWarning,0828.7,5.00,000.00,021.5,020.9,000.0,030.1,023.3,18.7,0000.0,0004.74,0009.91,0004.35
2024-02-15 04:15:00,SystemResetWarning,0828.7,5.01,000.00,021.5,020.9,000.0,030.1,023.3,18.7,0000.0,0004.77,0009.98,0004.36
2024-02-15 04:16:00,SystemResetWarning,0828.8,5.00,000.00,021.5,020.9,000.0,030.0,023.3,18.7,0000.0,0004.78,0009.82,0004.36
2024-02-15 04:17:00,SystemResetWarning,0828.7,5.01,000.00,021.5,020.9,000.0,030.0,023.3,18.8,0000.0,0004.77,0009.72,0004.37
2024-02-15 04:18:00,SystemResetWarning,0828.7,5.00,000.00,021.5,020.9,000.0,030.0,023.3,18.8,0000.0,0004.78,0009.89,0004.38
2024-02-15 04:19:00,SystemResetWarning,0828.7,5.00,000.00,021.5,020.8,000.0,030.0,023.3,18.8,0000.0,0004.80,0010.00,0004.40
2024-02-15 04:20:00,SystemResetWarning,0828.6,5.00,000.00,021.5,020.8,000.0,030.0,023.3,18.9,0000.0,0004.83,0009.94,0004.41
2024-02-15 04:21:00,SystemResetWarning,0828.6,4.99,000.00,021.5,020.8,000.0,030.0,023.3,18.9,0000.0,0004.84,0010.13,0004.41
2024-02-15 04:22:00,SystemResetWarning,0828.6,4.99,000.00,021.4,020.8,000.0,030.0,023.3,19.0,0000.0,0004.84,0010.00,0004.40
2024-02-15 04:23:00,SystemResetWarning,0828.6,5.00,000.00,021.4,020.8,000.0,030.0,023.2,19.0,0000.0,0004.85,0009.86,0004.40
2024-02-15 04:24:00,SystemResetWarning,0828.6,5.01,000.00,021.4,020.7,000.0,030.0,023.2,19.0,0000.0,0004.86,0010.09,0004.39
2024-02-15 04:25:00,SystemResetWarning,0828.7,5.01,000.00,021.4,020.7,000.0,030.0,023.2,19.1,0000.0,0004.85,0009.89,0004.38
2024-02-15 04:26:00,SystemResetWarning,0828.7,5.00,000.00,021.4,020.7,000.0,030.0,023.1,19.1,0000.0,0004.83,0009.84,0004.38
2024-02-15 04:27:00,SystemResetWarning,0828.8,4.99,000.00,021.4,020.7,000.0,030.0,023.2,19.1,0000.0,0004.80,0009.54,0004.39
2024-02-15 04:28:00,SystemResetWarning,0828.8,4.99,000.00,021.3,020.7,000.0,030.0,023.2,19.1,0000.0,0004.78,0009.01,0004.38
2024-02-15 04:29:00,SystemResetWarning,0828.8,5.01,000.00,021.3,020.7,000.0,029.9,023.2,19.1,0000.0,0004.76,0009.34,0004.37
2024-02-15 04:30:00,SystemResetWarning,0828.9,5.00,000.00,021.3,020.7,000.0,029.9,023.2,19.1,0000.0,0004.73,0009.36,0004.38
2024-02-15 04:31:00,SystemResetWarning,0828.9,5.01,000.00,021.3,020.7,000.0,029.9,023.2,19.1,0000.0,0004.71,0009.29,0004.36
2024-02-15 04:32:00,SystemResetWarning,0828.8,5.00,000.00,021.3,020.7,000.0,029.9,023.2,19.1,0000.0,0004.70,0009.90,0004.35
2024-02-15 04:33:00,SystemResetWarning,0828.8,4.99,000.00,021.3,020.7,000.0,029.9,023.2,19.0,0000.0,0004.70,0010.04,0004.36
2024-02-15 04:34:00,SystemResetWarning,0828.7,4.99,000.00,021.3,020.7,000.0,029.9,023.1,19.1,0000.0,0004.69,0009.65,0004.38
2024-02-15 04:35:00,SystemResetWarning,0828.7,5.00,000.00,021.3,020.7,000.0,029.9,023.2,19.1,0000.0,0004.69,0009.46,0004.38
2024-02-15 04:36:00,SystemResetWarning,0828.8,5.01,000.00,021.3,020.7,000.0,029.9,023.1,19.1,0000.0,0004.72,0009.44,0004.38
2024-02-15 04:37:00,SystemResetWarning,0828.8,5.01,000.00,021.3,020.7,000.0,029.9,023.1,19.1,0000.0,0004.74,0009.45,0004.39
2024-02-15 04:38:00,SystemResetWarning,0828.9,4.99,000.00,021.3,020.7,000.0,029.8,023.1,19.2,0000.0,0004.76,0009.49,0004.40
2024-02-15 04:39:00,SystemResetWarning,0829.0,5.00,000.00,021.3,020.7,000.0,029.8,023.1,19.2,0000.0,0004.76,0009.45,0004.42
2024-02-15 04:40:00,SystemResetWarning,0829.0,4.99,000.00,021.2,020.7,000.0,029.8,023.1,19.2,0000.0,0004.78,0008.93,0004.42
2024-02-15 04:41:00,SystemResetWarning,0828.9,4.99,000.00,021.2,020.6,000.0,029.8,023.1,19.2,0000.0,0004.78,0008.69,0004.43
2024-02-15 04:42:00,SystemResetWarning,0828.7,5.01,000.00,021.2,020.6,000.0,029.8,023.1,19.2,0000.0,0004.82,0009.23,0004.44
2024-02-15 04:43:00,SystemResetWarning,0828.7,5.00,000.00,021.2,020.6,000.0,029.8,023.1,19.2,0000.0,0004.86,0009.10,0004.45
2024-02-15 04:44:00,SystemResetWarning,0828.6,5.01,000.00,021.2,020.6,000.0,029.8,023.1,19.3,0000.0,0004.87,0008.90,0004.46
2024-02-15 04:45:00,SystemResetWarning,0828.6,5.00,000.00,021.2,020.6,000.0,029.8,023.1,19.3,0000.0,0004.86,0008.84,0004.46
2024-02-15 04:46:00,SystemResetWarning,0828.6,5.00,000.00,021.2,020.6,000.0,029.8,023.1,19.3,0000.0,0004.90,0008.96,0004.47
2024-02-15 04:47:00,SystemResetWarning,0828.6,4.99,000.00,021.2,020.6,000.0,029.8,023.1,19.3,0000.0,0004.92,0008.95,0004.48
2024-02-15 04:48:00,SystemResetWarning,0828.6,4.99,000.00,021.2,020.6,000.0,029.8,023.0,19.3,0000.0,0004.95,0009.03,0004.48
2024-02-15 04:49:00,SystemResetWarning,0828.7,4.99,000.00,021.2,020.6,000.0,029.8,023.0,19.3,0000.0,0004.97,0009.08,0004.48
2024-02-15 04:50:00,SystemResetWarning,0828.8,5.01,000.00,021.2,020.5,000.0,029.8,023.0,19.3,0000.0,0004.97,0009.41,0004.48
2024-02-15 04:51:00,SystemResetWarning,0828.8,5.01,000.00,021.1,020.5,000.0,029.7,023.0,19.2,0000.0,0004.99,0009.62,0004.48
2024-02-15 04:52:00,SystemResetWarning,0828.9,5.01,000.00,021.1,020.5,000.0,029.7,023.0,19.2,0000.0,0005.01,0009.72,0004.49
2024-02-15 04:53:00,SystemResetWarning,0828.9,4.99,000.00,021.1,020.5,000.0,029.7,023.0,19.2,0000.0,0005.04,0010.32,0004.50
2024-02-15 04:54:00,SystemResetWarning,0828.8,5.00,000.00,021.1,020.5,000.0,029.7,023.0,19.2,0000.0,0005.04,0009.79,0004.50
2024-02-15 04:55:00,SystemResetWarning,0828.8,5.00,000.00,021.1,020.5,000.0,029.7,023.0,19.2,0000.0,0005.06,0009.61,0004.50
2024-02-15 04:56:00,SystemResetWarning,0828.7,5.01,000.00,021.1,020.5,000.0,029.7,023.0,19.2,0000.0,0005.09,0009.73,0004.52
2024-02-15 04:57:00,SystemResetWarning,0828.6,5.01,000.00,021.1,020.5,000.0,029.7,023.0,19.3,0000.0,0005.09,0009.70,0004.53
2024-02-15 04:58:00,SystemResetWarning,0828.6,4.99,000.00,021.1,020.5,000.0,029.7,023.0,19.4,0000.0,0005.07,0009.43,0004.55
2024-02-15 04:59:00,SystemResetWarning,0828.5,4.99,000.00,021.1,020.5,000.0,029.7,023.0,19.4,0000.0,0005.03,0009.65,0004.56
